Regional Weather Roundup
Issued by NWS Albany, NY

Current Version | Previous Version | Text Only | Print | Product List | Glossary On
Versions: 1 2 3 4 5 6 7 8 9 10 11 12 13 14 15 16 17 18 19 20 21 22 23 24 25 26 27 28 29 30 31 32 33 34 35 36 37 38 39 40 41 42 43 44 45 46 47 48
000
ASUS41 KALY 250510
RWRALY

NEW YORK STATE HOURLY WEATHER ROUNDUP
NATIONAL WEATHER SERVICE ALBANY NY
1200 AM EST THU DEC 25 2014

NOTE: "FAIR" INDICATES FEW OR NO CLOUDS BELOW 12,000 FEET WITH NO
SIGNIFICANT WEATHER AND/OR NO OBSTRUCTIONS TO VISIBILITY.

NYZ032-033-038>043-046>054-057>066-NYZ062>081-250600-
EAST


CITY           SKY/WX    TMP DP  RH WIND       PRES   REMARKS
ALBANY         DRZL/FOG  51  49  92 S12       29.46F VSB 3/4
GLENS FALLS    FOG       38  36  92 CALM      29.45F VSB 1/2
POUGHKEEPSIE   CLOUDY    49  46  90 CALM      29.49F FOG
NEWBURGH       FOG       48  48 100 CALM      29.50F VSB 1
MONTGOMERY     FOG       47  47 100 N3        29.48F VSB 3/4
WHITE PLAINS   FOG       54  54 100 SE6       29.53F VSB 1/8
ISLIP          FOG       53  52  96 SW6       29.57S VSB 1/4
NEW YORK CITY  FOG       53  52  96 SE8       29.53F VSB 1/4
CENTRAL PARK   CLOUDY    54  54 100 S5        29.56F FOG
$$

NYZ005>009-017-018-044>046-055-056-250600-
CENTRAL


CITY           SKY/WX    TMP DP  RH WIND       PRES   REMARKS
FULTON         CLOUDY    51  48  89 SE7       29.28F
SYRACUSE       CLOUDY    51  50  96 E5        29.29F
ROME           CLOUDY    51  49  92 E10       29.35F
ELMIRA         CLOUDY    58  53  84 SW25G36   29.35S
BINGHAMTON     CLOUDY    54  53  97 S16G23    29.37F
MONTICELLO     CLOUDY    50  50 100 S7        29.49F VSB 1/4
$$

NYZ026>034-041>043-250600-
NORTH


CITY           SKY/WX    TMP DP  RH WIND       PRES   REMARKS
WATERTOWN      CLOUDY    59  48  67 S17G31    29.22F
FORT DRUM      NOT AVBL
MASSENA        FOG       37  36  96 E6        29.30F VSB 1/2 WCI  32
SARANAC LAKE   CLOUDY    46  45  96 S9        29.34F
PLATTSBURGH    CLOUDY    44  43  96 SE15      29.38F
$$

NYZ001>004-010>016-019>021-250600-
WEST


CITY           SKY/WX    TMP DP  RH WIND       PRES   REMARKS
NIAGARA FALLS  LGT RAIN  42  37  82 SW36G46   29.33R
BUFFALO        LGT RAIN  42  38  85 SW28G39   29.37R
DUNKIRK        LGT RAIN  41  37  86 SW26G40   29.44R
JAMESTOWN      CLOUDY    43  36  75 SW21G36   29.44R
WELLSVILLE     RAIN      47  43  86 W15G31    29.43R
ROCHESTER      LGT RAIN  51  47  86 MISG      29.33R
PENN YAN       CLOUDY    55  49  80 S15G23    29.32R
$$

             KEY
       WCI = WIND CHILL INDEX
       VSB = VISIBILITY
       HX  = HEAT INDEX
$$


USA.gov is the U.S. government's official web portal to all federal, state and local government web resources and services.